Rouyn Airport, Quebec

10:08 AM ADT on July 21, 2017 (GMT -0300)
Rouyn Airport

Weather History for CYUY - January, 2013

Change the Weather History Date:

Wednesday, January 23, 2013

  Actual Average Record
Temperature  
Mean Temperature -29 °F -  
Max Temperature -13 °F - - ()
Min Temperature -45 °F - - ()
Degree Days  
Heating Degree Days 94    
Moisture  
Dew Point -40 °F    
Average Humidity 64    
Maximum Humidity 69    
Minimum Humidity 53    
Precipitation  
Precipitation 0.00 in - - ()
Sea Level Pressure  
Sea Level Pressure 30.26 in    
Wind  
Wind Speed 1 mph ()    
Max Wind Speed 6 mph    
Max Gust Speed -    
Visibility 12.4 miles    
Events Fog    
T = Trace of Precipitation, MM = Missing Value Source: Averaged Metar Reports

Daily Weather History Graph

Daily Weather History Graph

Search for Another Location

Airport or City:

Trip Planner

Search our weather history database for the weather conditions in past years. The results will help you decide how hot, cold, wet, or windy it might be!

Date:

Astronomy

Jan. 23, 2013 Rise Set
Actual Time 8:53 AM AST 6:01 PM AST
Civil Twilight 8:19 AM AST 6:35 PM AST
Nautical Twilight 7:41 AM AST 7:13 PM AST
Astronomical Twilight 7:04 AM AST 7:50 PM AST
Moon 3:06 PM AST (1/23) 6:07 AM AST (1/23)
Length of Visible Light 10h 16m
Length of Day
9h 07m
Waxing Gibbous, 89% of the Moon is Illuminated
Jan 23
Waxing Gibbous
Jan 27
Full
Feb 3
Last Quarter
Feb 10
New
Feb 17
First Quarter

Hourly Weather History & Observations

Time (AST) Temp. Windchill Dew Point Humidity Pressure Visibility Wind Dir Wind Speed Gust Speed Precip Events Conditions
12:00 AM -32.8 °F - -40.0 °F 68% 30.27 in 15.0 mi Calm Calm - N/A   Clear
1:00 AM -34.6 °F - -43.6 °F 61% 30.27 in 15.0 mi Calm Calm - N/A   Clear
2:00 AM -36.4 °F - -43.6 °F 67% 30.25 in 15.0 mi Calm Calm - N/A   Clear
3:00 AM -36.4 °F - -45.4 °F 61% 30.26 in 15.0 mi Calm Calm - N/A   Clear
4:00 AM -38.2 °F - -47.2 °F 61% 30.25 in 15.0 mi Calm Calm - N/A   Clear
5:00 AM -40.0 °F - -49.0 °F 60% 30.26 in 15.0 mi Calm Calm - N/A   Clear
6:00 AM -40.0 °F - -49.0 °F 60% 30.26 in 15.0 mi Calm Calm - N/A   Clear
6:22 AM -41.8 °F - -49.0 °F 67% 30.26 in 6.0 mi Calm Calm - N/A   Ice Crystals
7:00 AM -40.0 °F - -49.0 °F 60% 30.27 in 6.0 mi Calm Calm - N/A   Ice Crystals
8:00 AM -43.6 °F - -50.8 °F 67% 30.27 in 3.0 mi Variable 2.3 mph - N/A   Clear
8:14 AM -43.6 °F -57.7 °F -50.8 °F 67% 30.27 in 1.0 mi ENE 3.5 mph - N/A   Clear
8:20 AM -43.6 °F - -50.8 °F 67% 30.27 in 0.8 mi Calm Calm - N/A   Clear
8:48 AM -45.4 °F - -54.4 °F 60% 30.27 in 15.0 mi SW 2.3 mph - N/A Fog Shallow Fog
9:00 AM -45.4 °F - -52.6 °F 66% 30.28 in 15.0 mi SSW 2.3 mph - N/A Fog Shallow Fog
10:00 AM -40.0 °F - -47.2 °F 67% 30.27 in 15.0 mi Calm Calm - N/A Fog Shallow Fog
10:39 AM -32.8 °F - -41.8 °F 62% 30.28 in 0.8 mi Calm Calm - N/A   Clear
10:54 AM -32.8 °F - -40.0 °F 68% 30.28 in 15.0 mi Calm Calm - N/A   Clear
11:00 AM -31.0 °F - -40.0 °F 62% 30.27 in 8.0 mi Calm Calm - N/A   Clear
12:00 PM -23.8 °F - -31.0 °F 69% 30.27 in 15.0 mi WSW 2.3 mph - N/A   Clear
1:00 PM -18.4 °F -28.9 °F -27.4 °F 63% 30.25 in 15.0 mi WSW 3.5 mph - N/A   Partly Cloudy
2:00 PM -14.8 °F -29.1 °F -25.6 °F 58% 30.23 in 15.0 mi WSW 5.8 mph - N/A   Scattered Clouds
3:00 PM -13.0 °F -22.7 °F -25.6 °F 53% 30.21 in 15.0 mi WSW 3.5 mph - N/A   Partly Cloudy
4:00 PM -13.0 °F -25.1 °F -25.6 °F 53% 30.22 in 15.0 mi West 4.6 mph - N/A   Partly Cloudy
5:00 PM -13.0 °F - -23.8 °F 59% 30.23 in 15.0 mi Calm Calm - N/A   Scattered Clouds
6:00 PM -14.8 °F - -23.8 °F 64% 30.24 in 15.0 mi NNE 2.3 mph - N/A   Scattered Clouds
7:00 PM -22.0 °F - -29.2 °F 69% 30.26 in 15.0 mi Calm Calm - N/A   Partly Cloudy
8:00 PM -25.6 °F - -32.8 °F 69% 30.27 in 15.0 mi Calm Calm - N/A   Partly Cloudy
9:00 PM -29.2 °F - -36.4 °F 68% 30.30 in 15.0 mi Calm Calm - N/A   Clear
10:00 PM -31.0 °F - -38.2 °F 68% 30.31 in 15.0 mi Calm Calm - N/A   Clear
11:00 PM -31.0 °F - -38.2 °F 68% 30.30 in 15.0 mi Calm Calm - N/A   Clear